DW2363 Weather Reports


time (UTC)temp
C
wind
direction
speed
KPH
gust
KPH
rain 1hr
cm
rain 24hr
cm
rain mn
cm
humidity
%
barometer
mb
20260903190754 18 185 11.3 17.7 0.00 0.00 0.00 83 1014.9
20260903190254 18 171 11.3 17.7 0.00 0.00 0.00 83 1014.9
20260903185755 18 153 11.3 17.7 0.00 0.00 0.00 83 1015.0
20260903185255 18 151 11.3 17.7 0.00 0.00 0.00 83 1015.0
20260903184754 18 140 9.7 17.7 0.00 0.00 0.00 84 1015.0
20260903184254 18 169 9.7 17.7 0.00 0.00 0.00 85 1015.1
20260903183754 18 187 9.7 17.7 0.00 0.00 0.00 85 1015.0
20260903183254 18 155 9.7 20.9 0.00 0.00 0.00 85 1015.1
20260903182755 18 142 9.7 20.9 0.00 0.00 0.00 84 1015.0
20260903182254 18 135 8.0 16.1 0.00 0.00 0.00 86 1015.1
20260903181754 18 171 8.0 16.1 0.00 0.00 0.00 86 1015.1
20260903181258 18 146 8.0 16.1 0.00 0.00 0.00 86 1015.2
20260903181254 18 151 8.0 16.1 0.00 0.00 0.00 85 1015.2
20260903180254 17 148 8.0 16.1 0.00 0.00 0.00 85 1015.3
20260903175755 18 161 8.0 16.1 0.00 0.00 0.00 85 1015.2
20260903175255 18 92 8.0 17.7 0.00 0.00 0.00 86 1015.3
20260903174754 18 140 9.7 17.7 0.00 0.00 0.00 85 1015.3
20260903174255 17 138 8.0 17.7 0.00 0.00 0.00 87 1015.2
20260903173754 17 132 6.4 17.7 0.00 0.00 0.00 89 1015.1
20260903173254 17 138 8.0 17.7 0.00 0.00 0.00 88 1015.1
20260903172754 17 153 8.0 17.7 0.00 0.00 0.00 88 1015.1
20260903172254 17 126 9.7 19.3 0.00 0.00 0.00 88 1015.1
20260903171754 17 150 11.3 19.3 0.00 0.00 0.00 89 1015.1
20260903171252 17 144 11.3 17.7 0.00 0.00 0.00 89 1015.1
20260903170753 16 122 9.7 17.7 0.00 0.00 0.00 89 1015.1
20260903170359 16 107 11.3 19.3 0.00 0.00 0.00 89 1015.0
20260903170255 17 94 9.7 19.3 0.00 0.00 0.00 89 1015.1
20260903170251 16 142 8.0 17.7 0.00 0.00 0.00 90 1015.0
20260903164750 17 109 11.3 16.1 0.00 0.00 0.00 88 1014.9
20260903164250 17 99 11.3 16.1 0.00 0.00 0.00 89 1014.9
20260903163754 17 120 9.7 16.1 0.00 0.00 0.00 88 1014.9
20260903163750 17 131 11.3 16.1 0.00 0.00 0.00 88 1014.9
20260903162750 17 119 8.0 14.5 0.00 0.00 0.00 89 1014.9
20260903162248 17 113 8.0 14.5 0.00 0.00 0.00 90 1014.9
20260903161752 16 116 6.4 16.1 0.00 0.00 0.00 92 1014.9
20260903161748 17 134 8.0 16.1 0.00 0.00 0.00 92 1014.9
20260903160746 16 115 1.6 12.9 0.00 0.00 0.00 93 1014.9
20260903160246 16 107 0.0 9.7 0.00 0.00 0.00 94 1014.8
20260903155746 16 112 1.6 11.3 0.00 0.00 0.00 94 1014.8
20260903155246 16 121 3.2 11.3 0.00 0.00 0.00 95 1014.8
20260903154746 16 92 1.6 11.3 0.00 0.00 0.00 95 1014.6
20260903154248 16 109 0.0 0.0 0.00 0.00 0.00 96 1014.8
20260903153746 16 82 0.0 1.6 0.00 0.00 0.00 96 1014.8
20260903153246 16 98 0.0 1.6 0.00 0.00 0.00 96 1014.9
20260903152747 15 73 0.0 0.0 0.00 0.00 0.00 97 1014.8
20260903152249 15 42 0.0 0.0 0.00 0.00 0.00 97 1014.6
20260903152245 15 63 0.0 0.0 0.00 0.00 0.00 97 1014.8
20260903151851 15 47 0.0 0.0 0.00 0.00 0.00 97 1014.8
20260903150744 15 54 0.0 9.7 0.00 0.00 0.00 97 1014.8
20260903150244 15 53 0.0 9.7 0.00 0.00 0.00 96 1014.6
20260903145744 15 47 0.0 12.9 0.00 0.00 0.00 96 1014.6
20260903145244 14 40 3.2 12.9 0.00 0.00 0.00 96 1014.8
20260903144743 14 39 8.0 11.3 0.00 0.00 0.00 96 1014.5
20260903144243 14 31 9.7 14.5 0.00 0.00 0.00 96 1014.5
20260903143744 14 355 9.7 17.7 0.00 0.00 0.00 96 1014.4
20260903143244 14 32 11.3 17.7 0.00 0.00 0.00 96 1014.4
20260903142744 14 28 12.9 17.7 0.00 0.00 0.00 96 1014.4
20260903142244 14 46 11.3 17.7 0.00 0.00 0.00 96 1014.3
20260903141744 14 42 8.0 14.5 0.00 0.00 0.00 96 1014.3
20260903141244 14 37 9.7 14.5 0.00 0.00 0.00 96 1014.3
20260903140744 14 21 9.7 16.1 0.00 0.00 0.00 96 1014.2
20260903140243 14 38 9.7 16.1 0.00 0.00 0.00 96 1014.1
20260903135744 14 29 9.7 16.1 0.00 0.00 0.00 95 1014.2
20260903135244 14 24 8.0 12.9 0.00 0.00 0.00 95 1014.1
20260903134744 14 22 9.7 12.9 0.00 0.00 0.00 95 1014.1
20260903134244 14 14 9.7 12.9 0.00 0.00 0.00 95 1014.1
20260903133748 14 38 9.7 14.5 0.00 0.00 0.00 94 1014.1
20260903133744 14 17 8.0 12.9 0.00 0.00 0.00 95 1014.1
20260903132744 14 36 9.7 14.5 0.00 0.00 0.00 94 1014.1
20260903132244 14 24 9.7 14.5 0.00 0.00 0.00 94 1014.2
20260903131744 14 32 11.3 14.5 0.00 0.00 0.00 93 1014.1
20260903131244 14 30 8.0 14.5 0.00 0.00 0.00 93 1014.2
20260903130743 14 22 6.4 12.9 0.00 0.00 0.00 92 1014.2
20260903130242 14 28 4.8 8.0 0.00 0.00 0.00 91 1014.1
20260903125741 15 37 4.8 8.0 0.00 0.00 0.00 89 1014.1
20260903125242 15 23 3.2 8.0 0.00 0.00 0.00 86 1014.1
20260903124748 16 44 1.6 4.8 0.00 0.00 0.00 79 1014.1
20260903124743 15 38 1.6 6.4 0.00 0.00 0.00 84 1014.1
20260903123742 15 57 1.6 4.8 0.00 0.00 0.00 75 1014.1
20260903123242 15 24 1.6 4.8 0.00 0.00 0.00 85 1014.1
20260903122742 15 25 3.2 6.4 0.00 0.00 0.00 87 1014.1
20260903122242 15 32 4.8 8.0 0.00 0.00 0.00 85 1014.1
20260903121742 16 33 3.2 6.4 0.00 0.00 0.00 83 1014.1
20260903121242 16 34 1.6 6.4 0.00 0.00 0.00 77 1014.0
20260903120743 16 57 1.6 6.4 0.00 0.00 0.00 79 1014.1
20260903120349 16 40 1.6 4.8 0.00 0.00 0.00 79 1014.2
20260903120246 16 41 3.2 4.8 0.00 0.00 0.00 80 1014.2
20260903120242 16 45 3.2 6.4 0.00 0.00 0.00 80 1014.2
20260903114746 16 37 1.6 6.4 0.00 0.00 0.00 73 1014.2
20260903114742 16 40 1.6 6.4 0.00 0.00 0.00 76 1014.2
20260903113742 17 43 1.6 4.8 0.00 0.00 0.00 69 1014.2
20260903113242 17 55 0.0 4.8 0.00 0.00 0.00 67 1014.3
20260903112742 17 94 0.0 4.8 0.00 0.00 0.00 59 1014.3
20260903112242 17 94 0.0 4.8 0.00 0.00 0.00 59 1014.3
20260903111742 17 94 1.6 9.7 0.00 0.00 0.00 57 1014.2
20260903111239 17 94 3.2 9.7 0.00 0.00 0.00 54 1014.3
20260903110745 17 97 3.2 9.7 0.00 0.00 0.00 54 1014.4
20260903110739 17 97 3.2 9.7 0.00 0.00 0.00 53 1014.3
20260903105746 17 87 0.0 4.8 0.00 0.00 0.00 58 1014.4
20260903105740 17 90 1.6 9.7 0.00 0.00 0.00 57 1014.4
20260903104738 17 87 1.6 4.8 0.00 0.00 0.00 58 1014.3
20260903104243 17 57 0.0 3.2 0.00 0.00 0.00 61 1014.5
20260903104238 17 88 0.0 4.8 0.00 0.00 0.00 59 1014.5
20260903103238 17 57 0.0 0.0 0.00 0.00 0.00 64 1014.5
20260903102737 17 57 0.0 0.0 0.00 0.00 0.00 61 1014.5
20260903102244 17 144 0.0 0.0 0.00 0.00 0.00 56 1014.5
20260903102237 17 19 0.0 0.0 0.00 0.00 0.00 63 1014.5
20260903101737 17 19 0.0 0.0 0.00 0.00 0.00 58 1014.5
20260903100737 17 144 0.0 0.0 0.00 0.00 0.00 55 1014.6
20260903100236 17 144 0.0 0.0 0.00 0.00 0.00 55 1014.5
20260903095735 17 144 0.0 0.0 0.00 0.00 0.00 54 1014.6
20260903095236 17 144 0.0 0.0 0.00 0.00 0.00 53 1014.6
20260903094736 18 144 0.0 3.2 0.00 0.00 0.00 54 1014.6
20260903094344 18 135 4.8 8.0 0.00 0.00 0.00 55 1014.9
20260903094237 18 144 1.6 3.2 0.00 0.00 0.00 55 1014.8
20260903093741 18 142 3.2 6.4 0.00 0.00 0.00 55 1014.8
20260903093736 18 143 1.6 3.2 0.00 0.00 0.00 56 1014.8
20260903092235 18 129 4.8 8.0 0.00 0.00 0.00 55 1015.0
20260903091735 18 130 4.8 6.4 0.00 0.00 0.00 55 1015.1
20260903091234 17 128 3.2 6.4 0.00 0.00 0.00 56 1015.1
20260903090733 17 123 1.6 4.8 0.00 0.00 0.00 56 1015.2
20260903090233 17 113 0.0 4.8 0.00 0.00 0.00 56 1015.2
20260903085733 17 84 1.6 4.8 0.00 0.00 0.00 56 1015.3
20260903085233 17 84 3.2 6.4 0.00 0.00 0.00 57 1015.3
20260903084737 18 107 6.4 9.7 0.00 0.00 0.00 56 1015.4
20260903084733 17 101 4.8 9.7 0.00 0.00 0.00 57 1015.3
20260903083739 18 126 8.0 11.3 0.00 0.00 0.00 56 1015.4
20260903083735 18 121 6.4 9.7 0.00 0.00 0.00 55 1015.3
20260903083342 18 123 8.0 11.3 0.00 0.00 0.00 56 1015.4
20260903082751 18 123 8.0 11.3 0.00 0.00 0.00 56 1015.4
20260903082420 18 134 6.4 8.0 0.00 0.00 0.00 56 1015.5
20260903082238 18 122 6.4 11.3 0.00 0.00 0.00 56 1015.4
20260903081231 18 130 4.8 8.0 0.00 0.00 0.00 55 1015.5
20260903080731 18 130 3.2 6.4 0.00 0.00 0.00 55 1015.6
20260903080236 18 281 3.2 6.4 0.00 0.00 0.00 54 1015.6
20260903080231 18 216 3.2 4.8 0.00 0.00 0.00 55 1015.5
20260903075229 18 291 4.8 8.0 0.00 0.00 0.00 55 1015.5
20260903074734 18 194 6.4 9.7 0.00 0.00 0.00 53 1015.5
20260903074730 18 316 6.4 9.7 0.00 0.00 0.00 54 1015.6
20260903073728 18 167 6.4 9.7 0.00 0.00 0.00 54 1015.5
20260903073228 18 121 4.8 8.0 0.00 0.00 0.00 54 1015.5
20260903072733 18 134 4.8 6.4 0.00 0.00 0.00 54 1015.6
20260903072728 18 120 4.8 6.4 0.00 0.00 0.00 53 1015.6
20260903071729 18 134 4.8 8.0 0.00 0.00 0.00 55 1015.6
20260903071229 18 134 4.8 8.0 0.00 0.00 0.00 55 1015.6
20260903070728 18 130 3.2 4.8 0.00 0.00 0.00 55 1015.6
20260903070228 18 120 1.6 4.8 0.00 0.00 0.00 53 1015.6
20260903065729 19 117 0.0 4.8 0.00 0.00 0.00 51 1015.6
20260903065229 19 114 0.0 1.6 0.00 0.00 0.00 51 1015.6
20260903064729 19 114 0.0 1.6 0.00 0.00 0.00 50 1015.6
20260903064229 19 117 0.0 3.2 0.00 0.00 0.00 49 1015.5
20260903063733 19 203 0.0 0.0 0.00 0.00 0.00 49 1015.6
20260903063729 19 117 0.0 3.2 0.00 0.00 0.00 49 1015.6
20260903062728 19 203 0.0 0.0 0.00 0.00 0.00 49 1015.5
20260903062228 20 203 0.0 0.0 0.00 0.00 0.00 52 1015.5
20260903061728 20 203 0.0 0.0 0.00 0.00 0.00 52 1015.4
20260903061233 20 203 0.0 0.0 0.00 0.00 0.00 49 1015.5
20260903061228 20 203 0.0 0.0 0.00 0.00 0.00 51 1015.5
20260903060232 20 203 0.0 1.6 0.00 0.00 0.00 48 1015.5
20260903060228 20 203 0.0 0.0 0.00 0.00 0.00 50 1015.5
20260903055835 20 203 0.0 1.6 0.00 0.00 0.00 46 1015.5
20260903055335 20 284 0.0 0.0 0.00 0.00 0.00 47 1015.5
20260903054229 20 284 0.0 0.0 0.00 0.00 0.00 46 1015.5
20260903054218 20 284 0.0 3.2 0.00 0.00 0.00 42 1015.5
20260903054107 20 284 0.0 0.0 0.00 0.00 0.00 43 1015.5
20260903053944 20 284 0.0 3.2 0.00 0.00 0.00 43 1015.6
20260903053836 20 284 0.0 0.0 0.00 0.00 0.00 45 1015.4
20260903053553 20 284 0.0 0.0 0.00 0.00 0.00 43 1015.5
20260903051227 20 284 1.6 4.8 0.00 0.00 0.00 43 1015.5
20260903050729 20 284 4.8 9.7 0.00 0.00 0.00 44 1015.6
20260903050228 20 281 6.4 17.7 0.00 0.00 0.00 46 1015.6
20260903045736 20 278 14.5 17.7 0.00 0.00 0.00 48 1015.6
20260903045731 20 275 9.7 17.7 0.00 0.00 0.00 46 1015.6
20260903045727 20 272 12.9 17.7 0.00 0.00 0.00 47 1015.6
20260903045229 20 272 12.9 17.7 0.00 0.00 0.00 47 1015.6
20260903044229 20 269 14.5 16.1 0.00 0.00 0.00 46 1015.6
20260903044224 20 275 14.5 16.1 0.00 0.00 0.00 47 1015.6
20260903043832 20 273 14.5 19.3 0.00 0.00 0.00 47 1015.5
20260903042723 20 270 14.5 19.3 0.00 0.00 0.00 48 1015.5
20260903042226 20 265 12.9 19.3 0.00 0.00 0.00 48 1015.5
20260903041832 19 274 17.7 24.1 0.00 0.00 0.00 50 1015.5
20260903041728 19 267 16.1 22.5 0.00 0.00 0.00 49 1015.5
20260903041724 19 263 14.5 19.3 0.00 0.00 0.00 47 1015.5
20260903040831 19 263 19.3 25.7 0.00 0.00 0.00 50 1015.4
20260903035723 19 276 19.3 27.4 0.00 0.00 0.00 51 1015.4
20260903035227 19 286 17.7 22.5 0.00 0.00 0.00 50 1015.2
20260903035223 19 292 17.7 27.4 0.00 0.00 0.00 50 1015.3
20260903034831 19 282 16.1 20.9 0.00 0.00 0.00 48 1015.2
20260903034327 19 286 16.1 22.5 0.00 0.00 0.00 49 1015.2
20260903033222 19 270 14.5 19.3 0.00 0.00 0.00 48 1015.2
20260903032721 19 282 12.9 19.3 0.00 0.00 0.00 47 1015.1
20260903032223 20 288 9.7 16.1 0.00 0.00 0.00 47 1015.1
20260903031722 20 268 6.4 11.3 0.00 0.00 0.00 46 1015.1
20260903031222 20 274 4.8 9.7 0.00 0.00 0.00 46 1015.1
20260903030726 20 257 6.4 11.3 0.00 0.00 0.00 46 1015.0
20260903030722 20 250 4.8 11.3 0.00 0.00 0.00 47 1015.1
20260903030328 21 202 3.2 8.0 0.00 0.00 0.00 46 1015.0
20260903025727 21 257 3.2 8.0 0.00 0.00 0.00 45 1015.1
20260903025723 20 275 4.8 11.3 0.00 0.00 0.00 45 1015.1
20260903025232 21 202 3.2 8.0 0.00 0.00 0.00 46 1015.0
20260903024219 21 242 4.8 9.7 0.00 0.00 0.00 44 1015.0
20260903023720 21 247 6.4 11.3 0.00 0.00 0.00 45 1015.0
20260903023220 21 254 6.4 12.9 0.00 0.00 0.00 43 1015.0
20260903022720 21 273 6.4 12.9 0.00 0.00 0.00 41 1015.0
20260903022226 21 266 8.0 16.1 0.00 0.00 0.00 45 1015.0
20260903022220 21 250 8.0 12.9 0.00 0.00 0.00 43 1015.0
20260903021220 21 291 8.0 16.1 0.00 0.00 0.00 46 1015.0
20260903020717 21 277 6.4 9.7 0.00 0.00 0.00 45 1015.0
20260903020224 21 282 11.3 17.7 0.00 0.00 0.00 47 1015.0
20260903020217 21 288 8.0 17.7 0.00 0.00 0.00 45 1015.0
20260903015218 21 296 12.9 20.9 0.00 0.00 0.00 47 1014.9
20260903014718 21 287 11.3 20.9 0.00 0.00 0.00 47 1014.9
20260903014219 21 294 11.3 20.9 0.00 0.00 0.00 47 1014.9
20260903013723 22 321 9.7 19.3 0.00 0.00 0.00 49 1015.0
20260903013718 22 279 11.3 19.3 0.00 0.00 0.00 48 1015.0
20260903012715 22 266 9.7 19.3 0.00 0.00 0.00 51 1015.0
20260903012306 22 307 11.3 19.3 0.00 0.00 0.00 52 1015.1
20260903011715 22 280 11.3 19.3 0.00 0.00 0.00 52 1015.1
20260903011215 22 271 9.7 19.3 0.00 0.00 0.00 52 1015.1
20260903010722 22 260 6.4 16.1 0.00 0.00 0.00 54 1015.1
20260903010716 22 302 9.7 19.3 0.00 0.00 0.00 53 1015.1
20260903005716 22 216 6.4 12.9 0.00 0.00 0.00 56 1015.2
20260903005213 22 234 6.4 14.5 0.00 0.00 0.00 56 1015.2
20260903004717 22 259 8.0 14.5 0.00 0.00 0.00 56 1015.0
20260903004713 22 212 8.0 14.5 0.00 0.00 0.00 57 1015.2
20260903004322 22 273 6.4 14.5 0.00 0.00 0.00 56 1015.2
20260903003214 22 251 4.8 11.3 0.00 0.00 0.00 58 1015.2
20260903002713 22 268 3.2 8.0 0.00 0.00 0.00 57 1015.2
20260903002215 22 259 4.8 11.3 0.00 0.00 0.00 60 1015.1
20260903001714 21 270 4.8 11.3 0.00 0.00 0.00 61 1015.1
20260903001213 21 231 6.4 12.9 0.00 0.00 0.00 56 1015.1
20260903000713 21 231 6.4 12.9 0.00 0.00 0.00 59 1015.2
20260903000218 22 230 6.4 14.5 0.00 0.00 0.00 52 1015.2
20260903000213 22 237 6.4 14.5 0.00 0.00 0.00 52 1015.2
20260902235727 22 230 6.4 14.5 0.00 0.00 0.00 52 1015.2
20260902235213 21 215 6.4 11.3 0.00 0.00 0.00 46 1015.2
20260902234713 21 223 6.4 11.3 0.00 0.00 0.00 54 1015.3
20260902234213 21 229 8.0 14.5 0.00 0.00 0.00 55 1015.3
20260902233712 21 212 8.0 14.5 0.00 0.00 0.00 61 1015.3
20260902233211 21 229 8.0 14.5 0.00 0.00 0.00 56 1015.3
20260902232710 21 204 8.0 14.5 0.00 0.00 0.00 59 1015.3
20260902232213 21 216 9.7 16.1 0.00 0.00 0.00 66 1015.4
20260902232209 21 195 8.0 16.1 0.00 0.00 0.00 57 1015.3
20260902231213 21 211 8.0 16.1 0.00 0.00 0.00 69 1015.5
20260902231209 21 198 9.7 16.1 0.00 0.00 0.00 68 1015.4
20260902230213 21 190 9.7 14.5 0.00 0.00 0.00 68 1015.5
20260902230209 21 198 8.0 12.9 0.00 0.00 0.00 67 1015.5
20260902225209 22 171 9.7 14.5 0.00 0.00 0.00 67 1015.5
20260902224710 21 173 8.0 14.5 0.00 0.00 0.00 66 1015.6
20260902224213 21 207 8.0 14.5 0.00 0.00 0.00 64 1015.6
20260902224209 21 198 8.0 14.5 0.00 0.00 0.00 57 1015.5
20260902223816 22 223 8.0 14.5 0.00 0.00 0.00 64 1015.7
20260902222714 22 218 8.0 14.5 0.00 0.00 0.00 65 1015.8
20260902222710 21 190 8.0 14.5 0.00 0.00 0.00 66 1015.7
20260902221709 22 163 8.0 12.9 0.00 0.00 0.00 64 1015.9
20260902221208 22 184 8.0 16.1 0.00 0.00 0.00 62 1015.8
20260902220713 22 205 8.0 14.5 0.00 0.00 0.00 59 1016.0
20260902220709 22 206 8.0 16.1 0.00 0.00 0.00 61 1015.9
20260902215713 22 176 8.0 16.1 0.00 0.00 0.00 55 1016.2
20260902215709 22 160 6.4 14.5 0.00 0.00 0.00 58 1016.0
20260902214709 22 151 8.0 16.1 0.00 0.00 0.00 62 1016.3
20260902214209 22 138 8.0 16.1 0.00 0.00 0.00 62 1016.3
20260902213709 22 175 8.0 16.1 0.00 0.00 0.00 57 1016.4
20260902213314 21 169 8.0 16.1 0.00 0.00 0.00 57 1016.5
20260902213214 21 153 9.7 17.7 0.00 0.00 0.00 50 1016.5
20260902213209 21 156 8.0 16.1 0.00 0.00 0.00 56 1016.4
20260902212821 21 169 8.0 16.1 0.00 0.00 0.00 57 1016.5
20260902211711 21 150 8.0 17.7 0.00 0.00 0.00 52 1016.5
20260902211707 21 149 9.7 17.7 0.00 0.00 0.00 51 1016.4
20260902210815 21 163 9.7 19.3 0.00 0.00 0.00 53 1016.6
20260902210711 21 144 8.0 16.1 0.00 0.00 0.00 52 1016.6
20260902210707 21 142 8.0 17.7 0.00 0.00 0.00 45 1016.5
20260902205723 21 163 9.7 19.3 0.00 0.00 0.00 53 1016.6
20260902205207 21 144 9.7 19.3 0.00 0.00 0.00 52 1016.6
20260902204707 21 138 9.7 19.3 0.00 0.00 0.00 49 1016.6
20260902204207 21 142 11.3 19.3 0.00 0.00 0.00 53 1016.7
20260902203710 21 151 9.7 16.1 0.00 0.00 0.00 51 1016.7
20260902203706 21 157 9.7 17.7 0.00 0.00 0.00 52 1016.7
20260902203217 21 156 9.7 16.1 0.00 0.00 0.00 52 1016.7
20260902202310 20 136 9.7 20.9 0.00 0.00 0.00 60 1016.8
20260902202207 21 155 8.0 17.7 0.00 0.00 0.00 49 1016.8
20260902202203 21 174 8.0 17.7 0.00 0.00 0.00 55 1016.8
20260902200703 20 165 9.7 20.9 0.00 0.00 0.00 61 1016.9
20260902200207 20 142 8.0 14.5 0.00 0.00 0.00 66 1016.9
20260902200203 21 122 9.7 14.5 0.00 0.00 0.00 64 1016.9
20260902195714 20 142 8.0 14.5 0.00 0.00 0.00 66 1016.9
20260902195203 20 133 8.0 12.9 0.00 0.00 0.00 63 1016.9
20260902194703 21 144 8.0 14.5 0.00 0.00 0.00 63 1017.0
20260902194207 20 163 8.0 14.5 0.00 0.00 0.00 69 1017.0
20260902194203 21 161 8.0 14.5 0.00 0.00 0.00 69 1017.0
20260902193201 20 159 8.0 16.1 0.00 0.00 0.00 69 1017.1
20260902192702 20 168 8.0 16.1 0.00 0.00 0.00 69 1017.1
20260902192205 20 182 8.0 12.9 0.00 0.00 0.00 72 1017.1
20260902191702 20 163 8.0 19.3 0.00 0.00 0.00 72 1017.1
20260902191202 20 150 8.0 19.3 0.00 0.00 0.00 70 1017.1